This is the latest recevied weather packets stored in our database for station/object KI5MKI. If no packets are shown the sender has not sent any weather packets the latest 10 day(s).
| Time | Temp. | Humidity | Pressure | Rain* | Wind** | Luminosity | Snow |
|---|---|---|---|---|---|---|---|
| 1777041727 | 22.22° C | 85% | 1008 hPa | 0 mm | - | 58 W/m² | - |
| 1777041423 | 22.22° C | 85% | 1008 hPa | 0 mm | - | 74 W/m² | - |
| 1777041120 | 22.22° C | 85% | 1007.9 hPa | 0 mm | - | 57 W/m² | - |
| 1777040815 | 22.22° C | 85% | 1007.8 hPa | 0 mm | - | 60 W/m² | - |
| 1777040510 | 22.22° C | 85% | 1007.6 hPa | 0 mm | - | 112 W/m² | - |
| 1777040206 | 22.22° C | 85% | 1007.8 hPa | 0 mm | - | 51 W/m² | - |
| 1777039902 | 22.22° C | 85% | 1007.9 hPa | 0 mm | - | 113 W/m² | - |
| 1777039598 | 22.22° C | 85% | 1007.6 hPa | 0 mm | - | 41 W/m² | - |
| 1777039293 | 22.22° C | 85% | 1007.9 hPa | 0 mm | - | 73 W/m² | - |
| 1777038992 | 22.22° C | 85% | 1007.7 hPa | 0 mm | - | 54 W/m² | - |
| 1777038689 | 22.22° C | 85% | 1007.5 hPa | 0 mm | - | 37 W/m² | - |
| 1777038384 | 22.22° C | 85% | 1007.4 hPa | 0 mm | - | 29 W/m² | - |
| 1777038079 | 22.22° C | 85% | 1007.5 hPa | 0 mm | - | 29 W/m² | - |
| 1777037775 | 22.22° C | 85% | 1007.3 hPa | 0 mm | - | 65 W/m² | - |
| 1777037471 | 22.22° C | 85% | 1007.3 hPa | 0 mm | - | 56 W/m² | - |
| 1777037168 | 22.22° C | 85% | 1007.2 hPa | 0 mm | - | 110 W/m² | - |
| 1777036865 | 22.22° C | 85% | 1007.1 hPa | 0 mm | - | 116 W/m² | - |
| 1777036562 | 22.22° C | 85% | 1007.1 hPa | 0 mm | - | 139 W/m² | - |
| 1777036261 | 21.67° C | 85% | 1006.9 hPa | 0 mm | - | 142 W/m² | - |
| 1777035959 | 21.67° C | 85% | 1006.9 hPa | 0 mm | - | 134 W/m² | - |
| 1777035653 | 21.67° C | 86% | 1006.9 hPa | 0 mm | - | 123 W/m² | - |
| 1777035349 | 21.67° C | 86% | 1006.9 hPa | 0 mm | - | 76 W/m² | - |
| 1777035045 | 21.67° C | 86% | 1006.8 hPa | 0 mm | - | 83 W/m² | - |
| 1777034742 | 21.67° C | 86% | 1006.8 hPa | 0 mm | - | 70 W/m² | - |
| 1777034439 | 21.67° C | 86% | 1006.8 hPa | 0 mm | - | 55 W/m² | - |
* Rain latest hour (hover to see other rain measurements)
** Current wind speed in m/s (hover to see current wind gust speed)